Location: Mentone
(34.5413°N, 85.5351°W)
Time: 04:45:41
(UTC-06:00)

UOSAT-12 - Visible Passes

Search period start: 19 December 2014 00:00
Search period end: 29 December 2014 00:00
Orbit: 594 x 663 km, 64.6° (Epoch: 18 December)

Date Brightness Start Highest point End Pass type
(mag) Time Alt. Az. Time Alt. Az. Time Alt. Az.
22 Dec 9.9 05:29:02 10° NNE 05:30:12 11° NE 05:31:21 10° ENE visible
23 Dec 9.3 05:47:20 10° N 05:50:59 22° NE 05:54:35 10° ESE visible
24 Dec 8.1 06:07:01 10° NNW 06:11:33 47° ENE 06:15:59 10° SE visible
25 Dec 9.8 04:49:04 10° NNE 04:51:14 13° NE 04:53:23 10° ENE visible
26 Dec 9.0 05:08:01 10° N 05:11:58 26° NE 05:15:51 10° ESE visible
27 Dec 7.7 05:28:15 12° NNW 05:32:28 58° ENE 05:36:59 10° SE visible
28 Dec 9.6 04:11:15 15° NNE 04:12:15 16° NE 04:15:01 10° E visible
28 Dec 7.2 05:48:37 13° NW 05:52:46 58° WSW 05:57:15 10° SSE visible
